Location: Newark
(8.1700°N, 77.4300°E)
Time: 10:00:36
(UTC+00:00)

N. Korean satellite - Visible Passes

Search period start: 16 July 2019 00:00
Search period end: 26 July 2019 00:00
Orbit: 456 x 508 km, 97.2° (Epoch: 15 July)

Date Brightness Start Highest point End Pass type
(mag) Time Alt. Az. Time Alt. Az. Time Alt. Az.
16 Jul 8.7 00:05:59 10° NE 00:09:13 29° E 00:12:29 10° SSE visible
16 Jul 9.8 23:42:41 10° ENE 23:44:10 12° E 23:45:39 10° ESE visible
19 Jul 9.2 23:59:14 10° NE 00:02:13 23° E 00:05:12 10° SSE visible
23 Jul 7.9 00:16:41 10° NNE 00:20:16 45° E 00:23:50 10° S visible
23 Jul 9.5 23:52:35 10° NE 23:55:11 18° E 23:57:47 10° SE visible
